www.pogodaiklimat.ru

Погода и климат >> Архив погоды >> Мали >> Kenieba


ПОГОДА в Kenieba

  • Прогноз погоды в Kenieba
  • Монитор погоды в Kenieba
  • Климат города

АРХИВ ПОГОДЫ в Kenieba

Время (UTC), дата Ветер
(напр.,м/с)
 
Видим.   Явления Облачность Т
(С)
Тd
(С)
f
(%)
Тe
(С)
Тes
(С)
Комфортность P
(гПа)
Po
(гПа)
Тmin
(С)
Tmax
(С)
R
(мм)
R24
(мм)
S
(см)
18 10.12 штиль 0 10 км 5/0
[Ci sp]
+31.8 +14.4 35 +34 +34 душно 1011.7 996.6 +35.7
21 10.12 штиль 0 10 км 5/0
[Ci sp]
+22.6 +15.9 66 +27 +27 душно 1014.2 999.0
00 11.12 штиль 0 10 км 5/0
[Ci sp]
+19.4 +14.1 71 +21 +21 комфорт 1013.8 998.8
03 11.12 штиль 0 10 км 6/0
[Ci sp]
+17.6 +12.0 70 +18 +18 1012.9 997.9
06 11.12 штиль 0 10 км 6/0
[Ci sp]
+15.5 +11.9 79 +15 +15 1013.3 998.2 +15.5
09 11.12 штиль 0 10 км 8/0
[Ci sp]
+19.7 +12.5 63 +21 +25 комфорт 1015.0 999.7
12 11.12 штиль 0 10 км 4/0
[Ci sp]
+32.0 +10.7 27 +32 +49 жарко 1012.9 997.9
15 11.12 ЮЗ 2 10 км 5/0
[Ci sp]
+35.3 +7.0 17 +33 +42 жарко 1009.9 995.0
18 11.12 штиль 0 10 км 6/0
[Ci sp]
+31.0 +14.1 36 +33 +33 душно 1010.3 995.2 +35.9
21 11.12 штиль 0 10 км 6/0
[Ci sp]
+22.5 +16.0 67 +27 +27 душно 1012.4 997.1
00 12.12 штиль 0 10 км 8/0
[Ci sp]
+20.7 +15.2 71 +23 +23 комфорт 1012.3 997.3
03 12.12 штиль 0 10 км 6/0
[Ci sp]
+21.6 +13.8 61 +24 +24 комфорт 1011.0 996.1
06 12.12 штиль 0 10 км 8/0
[Ci sp]
+18.6 +14.0 75 +19 +19 1011.5 996.4 +18.7
09 12.12 СЗ 1 10 км 8/0
[Ac As Ci sp]
+23.0 +14.3 58 +27 +29 душно 1013.1 997.8
12 12.12 штиль 0 10 км 8/0
[Ci sp]
+34.0 +4.1 15 +31 +47 жарко 1011.9 997.0
15 12.12 штиль 0 10 км 8/0
[Ci sp]
+35.3 +4.9 15 +33 +43 жарко 1009.7 994.8
18 12.12 штиль 0 10 км 8/0
[Ci sp]
+32.8 +11.3 27 +33 +33 жарко 1010.3 995.3 +35.3
21 12.12 З 1 10 км 8/0
[Ci sp]
+23.8 +15.3 59 +27 +27 жарко 1012.0 997.0
00 13.12 З 1 10 км 8/0
[Ac As Ci sp]
+22.9 +15.2 62 +27 +27 душно 1012.3 997.3
03 13.12 штиль 0 10 км 9/0
[Ac As Ci sp]
+23.8 +13.7 53 +26 +26 жарко 1011.5 996.7
06 13.12 штиль 0 10 км 9/0
[Ac As Ci sp]
+20.8 +16.4 76 +24 +24 комфорт 1012.3 997.3 +20.8
09 13.12 штиль 0 10 км 9/0
[Ac As Ci sp]
+24.0 +16.8 64 +28 +30 душно 1014.6 999.5
12 13.12 Ю 2 10 км 6/0
[Ci sp]
+33.2 +13.3 30 +34 +46 очень
жарко
1013.4 998.5
15 13.12 ЮВ 2 10 км 6/0
[Ci sp]
+35.7 +9.8 21 +35 +43 очень
жарко
1010.7 995.9
18 13.12 штиль 0 10 км 8/0
[Ac lent Ci sp]
+33.3 +5.5 18 +34 +34 очень
жарко
1011.8 996.9 +35.6
21 13.12 Ю 2 10 км 8/0
[Ci sp]
+33.8 +4.8 16 +31 +31 жарко 1013.2 998.3
00 14.12 СЗ 2 10 км 5/0
[Ci sp]
+26.0 +12.3 43 +28 +28 жарко 1013.6 998.7
03 14.12 В 3 10 км 6/0
[Ci sp]
+30.0 +8.1 25 +29 +29 жарко 1012.4 997.7
06 14.12 З 2 10 км 8/0
[Ci sp]
+26.2 +8.5 33 +26 +26 жарко 1013.4 998.6 +24.0
09 14.12 штиль 0 10 км 8/0
[Ac As Ci sp]
+28.7 +6.5 25 +28 +30 жарко 1015.2 1000.3
12 14.12 В 1 10 км 8/0
[Ac As Ci sp]
+33.5 +3.0 15 +31 +41 жарко 1014.3 999.4
15 14.12 ЮВ 2 10 км 8/0
[Ac As]
+35.4 +7.2 18 +33 +38 жарко 1012.7 998.0
18 14.12 В 3 10 км 9/0
[Ac As]
+33.3 +8.3 21 +32 +32 жарко 1013.0 998.2 +36.2
21 14.12 СВ 1 10 км 9/0
[Ac As]
+31.8 +5.3 19 +30 +30 жарко 1014.6 999.7
00 15.12 В 1 10 км 9/0
[Ac As]
+30.5 +4.3 19 +28 +28 жарко 1014.9 1000.6
03 15.12 СВ 1 10 км 8/0
[Ac As Ci sp]
+28.7 +4.3 21 +27 +27 жарко 1014.1 999.4
06 15.12 З 2 10 км 9/0
[Ac As Ci sp]
+25.8 +4.6 26 +25 +25 комфорт 1015.2 1000.3 +25.6
09 15.12 штиль 0 10 км 8/0
[Ac As Ci sp]
+25.5 +9.8 37 +26 +30 жарко 1016.4 1002.4
12 15.12 С 2 10 км 6/0
[Ac trans Ci sp]
+33.5 +6.5 19 +32 +43 жарко 1015.9 1001.1
15 15.12 В 2 10 км 6/0
[Ci sp]
+35.3 +5.7 16 +33 +41 жарко 1013.3 998.6
18 15.12 В 2 10 км 8/0
[Ac As Ci sp]
+33.0 +5.8 18 +31 +31 жарко 1014.0 999.2 +35.6
21 15.12 штиль 0 10 км 6/0
[Ci sp]
+25.3 +10.2 39 +26 +26 жарко 1016.2 1001.1
00 16.12 СЗ 1 10 км 6/0
[Ci sp]
+21.6 +9.5 46 +23 +23 комфорт 1016.2 1001.2
03 16.12 штиль 0 10 км 4/0
[Ci sp]
+18.3 +8.6 53 +19 +19 1015.4 1000.3
06 16.12 СЗ 2 10 км 5/0
[Ci sp]
+19.8 +3.5 34 +21 +21 комфорт 1015.4 1000.3 +17.5
09 16.12 З 2 10 км 6/0
[Ci sp]
+23.0 +7.4 37 +24 +27 комфорт 1016.4 1001.2
12 16.12 ЮВ 2 10 км 5/0
[Ci sp]
+32.0 +0.9 14 +29 +41 жарко 1015.6 1000.5
15 16.12 СВ 2 10 км 6/0
[Ci sp]
+34.2 +0.7 12 +31 +39 жарко 1013.1 998.1
18 16.12 СВ 2 10 км 8/0
[Ci sp]
+32.5 +2.5 15 +30 +30 жарко 1012.7 997.7 +34.6
21 16.12 штиль 0 10 км 8/0
[Ci sp]
+23.4 +9.0 40 +25 +25 комфорт 1014.3 999.1
00 17.12 З 1 10 км 8/0
[Ci sp]
+21.0 +7.2 41 +23 +23 комфорт 1014.4 999.4
03 17.12 штиль 0 10 км 6/0
[Ci sp]
+18.0 +6.8 48 +18 +18 1014.1 999.0
06 17.12 ЮВ 1 10 км 8/0
[Ci sp]
+15.8 +8.2 61 +17 +17 1014.3 999.2 +15.8
09 17.12 штиль 0 10 км 6/0
[Ci sp]
+20.3 +9.1 49 +21 +26 комфорт 1016.0 1000.7
12 17.12 Ю 2 10 км 4/0
[Ci sp]
+32.4 +1.6 14 +29 +42 жарко 1013.7 998.7
15 17.12 штиль 0 10 км 5/0
[Ci sp]
+35.4 +6.5 17 +33 +45 жарко 1010.8 995.9

 

Местоположение метеостанции Kenieba (Мали): широта 12.85 долгота -11.23 высота над уровнем моря 132 м.

В архиве по умолчанию представлена погода в Kenieba за последнюю неделю. Архивные данные за месяц целиком и за предыдущие месяцы, начиная с января 2011 года, Вы можете получить, выбрав интересующий диапазон дат из раскрывающегося списка и нажав кнопку "Ввод!".


*Определитесь, кто Вы:
робот инопланетянин человек

Внимание! Время в таблицах - всемирное. Для получения местного времени необходимо прибавить поправку, которая в Kenieba равна 0 ч.

Смотрите также архив погоды в соседних городах и на ближайших метеорологических станциях:

Погода в Kedougou (Сенегал) (111 км)
Погода в Kayes (Мали) (177 км)
Погода в Kita (Мали) (192 км)
Погода в Koundara (Гвинея) (249 км)
Погода в Fatoto (Гамбия) (261 км)
Погода в Yelimane (Мали) (263 км)
Погода в Tambacounda (Сенегал) (284 км)
Погода в Basse (Гамбия) (327 км)
Погода в Nioro Du Sahel (Мали) (333 км)
Погода в Bamako (Мали) (358 км)

Пояснения к столбцам:

Ветер - указаны скорость ветра в м/с - средняя за 10 мин, порывы в срок и между сроками (в фигурных скобках) и направление, откуда дует ветер: С - северный, СВ - северо-восточный, В - восточный, ЮВ - юго-восточный, Ю - южный, ЮЗ - юго-западный, З - западный, СЗ - северо-западный.
Видимость - горизонтальная дальность видимости в метрах или километрах. При видимости от 1 до 10 км при отсутствии осадков обычно наблюдается дымка, при ухудшении видимости до 1 км и менее - туман. В сухую погоду видимость может ухудшаться дымом, пылью или мглою.
Явления - указаны атмосферные явления, наблюдавшиеся в срок или в последний час перед сроком; фигурными скобками обозначены явления, наблюдавшиеся между сроками (за 1-3 часа до срока); квадратными скобками обозначены град или гололедные отложения с указанием их диаметра в мм.
Облачность - указаны через наклонную черту общая и нижняя облачность в баллах и высота нижней границы облаков в метрах; квадратными скобками обозначены формы облаков: Ci - перистые, Cs - перисто-слоистые, Cc - перисто-кучевые, Ac - высококучевые, As - высокослоистые, Sc - слоисто-кучевые, Ns - слоисто-дождевые, Cu - кучевые, Cb - кучево-дождевые. Подробнее классификацию облаков см. в Атласе облаков (PDF).
T - Температура воздуха - температура, измеренная на высоте 2 м над землей.
Td - Температура точки росы - температура, при понижении до которой содержащийся в воздухе водяной пар достигнет насыщения.
f - Относительная влажность воздуха - влажноcть воздуха, измеренная на высоте 2 м над землей.
Te - Эффективная температура - температура, которую ощущает одетый по сезону человек в тени. Характеристика душности погоды. При расчете учитывается влияние влажности воздуха и скорости ветра на теплоощущения человека.
Tes - Эффективная температура на солнце - температура, которую ощущает человек, с поправкой на солнечный нагрев. Характеристика знойности погоды. Зависит от высоты солнца над горизонтом, облачности и скорости ветра. Ночью, в пасмурную погоду, а также при ветре 12 м/с и более поправка равна нулю.
P - Атмосферное давление - приведенное к уровню моря атмосферное давление.
Po - Атмосферное давление - измеренное на уровне метеостанции атмосферное давление.
Tmin - Минимальная температура - минимум температуры воздуха на высоте 2 м над землей.
Tmax - Максимальная температура - максимум температуры воздуха на высоте 2 м над землей.
R - Количество осадков - Количество выпавших осадков за период времени, мм. При наведении курсора мыши на число - период времени, за который выпало указанное количество осадков.
R24 - Количество осадков - Количество выпавших осадков за 24 часа, мм.
S - Снежный покров - Высота снежного покрова, см. При наведении курсора мыши на число - состояние снежного покрова и степень покрытия местности в баллах.